Temperature
15 15 15 15 15 15 16 16 16 17 17 16 15 15 15 15 15 15 15 15 15 15 15 15 15 15 15 15 15 15 15 15 15 15 15 15 15 15
16 16 15 15 15 15 15 15 15 16 16 16 15 15 14 15 15 14 14 15 15 15 15 15 15 15 15 15 15 15 15 15 15 15 15 15 15 14
15 15 15 15 15 15 15 15 15 15 15 15 15 14 14 14 14 14 14 14 14 15 15 15 15 15 14 14 15 15 15 15 15 15 14 14 14 14
15 15 15 15 14 14 14 14 14 14 14 14 14 14 14 14 14 14 14 14 14 14 14 14 14 14 14 14 14 14 14 14 14 14 14 14 14 14
14 14 14 14 14 14 14 14 14 14 14 14 14 13 13 13 13 13 14 14 14 14 14 14 14 14 14 14 14 14 14 14 14 14 14 14 14 14
14 14 14 14 14 14 14 13 13 13 13 13 14 13 13 13 13 13 13 13 13 14 13 13 13 13 14 14 14 14 14 14 14 14 14 14 14 14
14 14 14 14 14 13 13 13 13 13 13 13 13 13 13 13 13 13 13 13 13 13 13 13 13 13 13 13 13 13 13 14 13 13 14 14 14 13
14 13 13 13 13 13 13 13 13 13 13 13 13 13 12 12 12 12 13 13 13 13 12 13 13 13 13 13 13 13 13 13 13 13 13 13 13 13
13 13 13 13 13 13 13 13 13 12 12 12 12 12 12 12 12 12 12 12 12 12 12 12 13 13 13 13 13 13 13 13 13 13 13 13 13 13
13 13 13 13 13 13 12 12 12 12 12 12 11 11 11 11 11 11 11 11 12 12 12 12 12 12 13 12 12 12 13 13 13 13 13 13 12 12
13 13 13 13 13 13 12 12 12 12 12 12 12 11 11 11 11 11 11 12 12 12 12 12 12 12 12 12 12 12 12 12 12 12 12 12 12 12
13 13 13 13 13 12 12 11 11 11 11 11 11 11 11 11 11 11 11 11 12 12 12 11 12 12 12 12 12 12 12 12 12 12 12 12 12 12
13 13 13 12 12 12 12 11 11 11 11 11 11 11 11 11 11 11 10 10 11 11 11 11 11 11 12 12 12 11 11 11 11 11 11 11 11 11
12 12 12 12 12 12 12 11 11 11 11 11 11 11 11 11 11 10 10 10 10 10 10 10 11 11 11 11 11 11 11 11 11 11 11 11 11 11
12 12 12 12 12 11 11 11 11 11 11 11 11 11 11 11 10 10 10 10 10 10 10 10 10 10 10 11 11 11 11 11 10 10 10 10 10 10
12 11 11 11 11 11 11 11 11 11 11 11 11 11 11 11 10 10 10 10 10 10 10 10 10 10 10 10 10 10 10 10 10 10 10 10 10 10
11 11 11 11 11 11 11 11 11 11 11 11 11 11 11 11 10 10 10 10 10 10 10 10 10 10 10 10 10 10 10 10 10 9 9 9 9 9
11 11 11 11 11 11 11 11 11 11 11 11 11 11 10 10 10 10 10 10 10 10 10 10 10 9 9 9 10 9 9 9 9 9 9 9 9 9
10 11 11 11 11 11 11 11 11 10 10 10 10 10 10 10 10 10 10 10 10 10 10 10 9 9 10 10 9 9 9 9 9 9 9 9 9 9
10 11 11 11 11 10 11 10 10 10 10 10 10 10 10 10 10 10 10 10 10 10 10 9 9 9 9 9 9 9 9 9 8 8 8 8 8 8
10 10 11 11 10 10 10 10 10 10 10 10 10 10 10 10 10 10 10 9 9 10 9 9 9 9 9 9 9 9 8 8 8 8 8 8 8 8
10 10 10 10 10 10 10 10 10 10 10 9 10 9 10 10 9 9 9 9 9 9 9 9 9 9 9 9 9 9 9 8 8 8 8 8 8 8
10 10 10 10 10 10 10 10 9 10 9 10 9 9 9 9 9 9 9 9 9 9 9 9 9 9 9 9 9 9 9 8 8 8 8 8 8 8
Wind_Speed
1 1 1 1 2 2 2 3 3 4 3 1 1 1 1 1 0 2 2 3 5 5 5 5 5 5 5 5 5 6 6 6 7 7 7 7 7 7
1 1 2 2 2 2 2 2 3 4 4 2 2 2 3 3 0 2 2 4 5 5 5 5 5 5 5 6 6 7 7 7 7 7 7 7 7 7
2 1 2 2 2 2 2 2 2 3 4 4 3 2 3 4 3 3 3 4 3 6 5 5 5 5 6 5 6 7 7 7 8 8 8 8 8 8
2 2 2 2 2 2 2 2 2 3 4 5 4 3 3 3 3 4 4 3 2 5 6 5 5 5 5 6 6 6 8 8 8 9 9 9 9 9
3 2 2 2 2 2 2 3 3 3 3 4 4 3 3 2 3 4 4 3 4 3 7 8 7 6 5 6 6 6 7 8 8 9 9 9 9 9
3 2 2 2 2 3 2 3 3 3 3 4 4 4 3 3 3 4 4 3 4 4 3 3 6 9 8 8 7 7 7 7 8 9 9 9 9 9
3 3 2 2 3 3 3 2 3 4 4 4 4 4 4 3 4 4 5 4 3 4 4 4 4 5 6 8 9 7 6 6 7 8 9 9 9 9
3 3 3 3 1 2 2 3 4 4 5 5 5 5 5 5 5 5 5 5 5 3 4 4 4 4 4 3 4 5 5 6 6 7 9 9 9 10
4 4 4 2 3 3 4 5 5 5 5 5 5 6 5 5 5 6 5 6 6 4 4 5 4 5 4 2 4 4 5 5 5 6 8 9 10 10
4 4 3 3 3 3 4 4 4 4 4 5 5 5 5 4 5 6 7 7 7 5 5 5 5 5 4 2 5 6 5 4 5 5 6 8 10 11
5 4 4 3 1 3 4 4 4 4 4 4 4 5 6 6 6 6 5 5 5 4 3 5 5 5 5 4 4 8 7 6 6 6 7 7 9 10
4 5 4 3 2 3 4 4 5 4 4 3 4 6 6 6 7 6 6 6 5 5 3 4 5 5 5 4 3 4 5 7 8 8 8 8 7 7
5 4 3 4 5 5 6 5 5 5 5 5 4 4 4 4 5 5 5 5 6 5 3 4 5 5 5 5 4 3 3 3 4 5 7 8 9 8
5 4 2 4 5 6 5 4 5 6 5 5 5 5 4 4 4 4 4 5 5 6 5 5 5 5 6 6 5 4 4 3 3 3 3 5 8 9
4 2 2 5 6 6 7 7 7 6 5 5 5 5 4 4 4 4 5 5 6 6 5 5 6 5 6 6 5 5 5 4 3 3 3 3 4 4
5 4 7 8 8 5 6 6 6 5 5 6 5 5 4 5 5 4 4 4 5 4 4 6 6 6 6 6 5 5 4 4 4 3 4 4 4 4
3 4 5 4 5 5 5 4 5 5 5 6 6 5 5 5 4 4 4 5 5 5 4 4 4 5 5 5 5 5 4 4 4 3 4 4 4 3
5 6 6 6 6 6 6 6 6 5 5 6 6 6 5 5 5 4 4 4 4 5 4 3 3 3 4 3 4 5 4 4 4 3 5 5 4 3
7 7 7 6 6 6 6 6 6 5 5 6 6 6 6 5 5 5 4 5 5 4 4 3 3 4 5 5 3 3 4 4 4 4 4 4 4 3
7 7 7 6 6 6 6 6 6 6 6 6 6 6 6 6 5 5 5 5 5 5 4 4 3 4 5 5 4 3 4 4 4 4 4 4 3 2
7 7 7 7 6 6 6 6 6 6 6 6 6 6 6 6 6 6 5 5 6 5 5 4 3 4 5 4 4 4 2 4 3 4 4 4 4 4
7 7 7 7 6 6 6 6 7 6 6 6 6 6 6 6 6 7 6 5 5 5 5 4 3 4 4 5 5 4 4 3 4 6 5 5 4 4
7 7 7 7 7 6 6 7 7 6 5 5 5 6 6 6 6 5 5 5 5 5 5 4 3 3 4 5 4 4 4 4 4 3 4 6 7 7
Wind_Direction
262 244 273 304 305 311 308 297 287 283 277 251 262 317 307 278 10 245 246 182 191 200 206 213 217 219 223 228 226 227 222 217 214 213 219 223 228 233
280 306 290 299 308 305 308 305 293 290 291 299 283 311 318 308 238 271 249 180 191 200 204 207 213 219 225 231 230 227 223 220 218 218 221 224 227 230
261 248 257 290 295 295 295 294 290 284 278 287 289 291 284 295 308 280 262 237 190 178 196 210 219 223 226 232 235 232 227 224 223 224 224 226 228 229
251 243 255 251 261 281 282 281 280 279 275 282 285 283 279 279 283 279 279 266 258 167 180 197 211 217 223 230 236 237 231 229 229 231 232 232 232 232
261 251 263 271 272 280 279 280 276 271 270 272 280 290 284 288 280 271 276 275 267 200 185 193 202 206 213 222 231 239 239 235 236 237 237 239 236 233
262 262 271 271 272 277 269 266 270 274 264 268 276 275 274 276 276 281 282 262 271 277 259 221 203 204 209 214 223 231 237 238 236 237 239 240 237 234
261 263 263 293 326 311 299 291 280 278 272 269 272 274 279 286 281 281 285 282 266 274 275 256 229 226 212 208 215 226 230 239 239 236 237 237 234 231
256 258 249 234 250 255 294 301 296 281 284 280 273 275 276 278 282 280 281 281 282 275 272 269 260 258 246 231 171 187 221 239 248 243 239 238 235 233
250 252 257 242 243 260 238 233 245 255 265 274 280 284 283 285 284 278 278 280 283 282 274 269 268 265 259 227 146 188 217 234 247 249 242 239 235 233
248 249 257 263 275 277 268 263 254 245 249 255 271 277 282 286 277 270 269 263 261 260 260 265 266 270 273 242 166 186 208 229 243 249 249 243 238 237
241 240 249 253 272 273 262 262 262 255 234 227 253 262 265 262 270 268 264 261 265 263 255 263 270 273 265 241 196 184 197 213 229 242 247 247 245 241
235 230 219 239 229 244 257 260 261 265 273 258 240 238 243 236 236 253 264 263 265 269 269 269 271 277 270 253 249 226 217 211 215 224 233 237 237 245
245 244 226 177 211 237 257 261 269 276 266 260 255 253 250 247 241 241 258 269 271 272 275 264 272 272 271 273 268 262 271 269 246 235 225 224 228 240
256 258 237 178 219 236 251 260 259 262 260 261 259 259 259 260 258 256 253 260 269 272 279 279 271 274 275 277 275 272 271 270 276 280 269 218 219 229
260 280 237 221 234 236 226 234 243 249 255 260 261 262 263 269 268 251 238 237 243 252 257 265 272 271 268 275 277 277 281 278 274 281 283 278 264 249
247 214 207 219 234 246 231 229 242 251 260 263 266 265 258 255 252 252 250 242 248 246 230 240 256 266 267 272 271 273 277 280 280 286 290 285 274 261
260 253 247 242 245 243 244 246 248 245 249 258 262 261 260 259 254 252 252 255 254 257 251 234 237 248 255 267 270 271 274 280 280 285 281 276 273 272
245 252 251 249 249 250 249 247 245 248 254 260 261 261 260 260 258 252 247 249 254 257 260 262 257 259 256 250 263 271 273 282 288 278 273 272 270 268
236 251 254 254 257 257 254 255 255 253 255 257 259 260 260 259 257 250 245 251 256 259 265 266 260 262 267 266 246 240 269 281 280 277 276 277 276 276
242 252 256 258 260 263 261 257 255 253 248 252 256 259 258 257 257 256 249 251 257 258 256 253 254 262 273 280 279 265 229 253 267 271 275 277 275 257
245 252 258 259 258 259 260 258 255 254 255 256 256 258 257 255 255 255 254 251 258 260 257 255 259 252 267 269 262 259 241 198 228 265 275 272 269 265
247 250 255 257 255 254 254 253 254 253 252 251 254 254 253 252 251 251 253 254 254 258 262 261 249 251 256 256 260 260 261 242 208 210 238 269 272 270
249 251 251 250 246 244 244 242 246 250 252 255 257 256 255 254 252 249 249 252 254 257 257 259 258 253 251 248 255 265 265 259 256 242 227 206 215 235
Height
1528 1528 1528 1528 1528 1527 1527 1527 1527 1526 1525 1525 1525 1524 1523 1523 1522 1522 1521 1521 1521 1521 1521 1521 1521 1522 1522 1523 1523 1524 1525 1525 1526 1526 1527 1527 1528 1528
1526 1525 1525 1526 1526 1525 1525 1525 1525 1525 1524 1523 1523 1522 1521 1521 1520 1519 1519 1518 1518 1518 1518 1518 1518 1519 1519 1519 1520 1520 1521 1522 1522 1523 1523 1524 1524 1524
1524 1524 1523 1523 1524 1524 1523 1523 1522 1523 1522 1521 1521 1520 1518 1517 1517 1516 1516 1515 1516 1515 1515 1515 1515 1515 1515 1516 1516 1517 1517 1518 1518 1519 1519 1520 1520 1520
1522 1522 1522 1522 1521 1521 1521 1520 1520 1520 1520 1519 1518 1518 1516 1515 1514 1513 1513 1513 1513 1512 1511 1512 1512 1512 1512 1512 1512 1513 1513 1514 1515 1515 1515 1516 1516 1516
1520 1520 1520 1520 1519 1519 1518 1518 1518 1518 1517 1517 1516 1515 1514 1513 1512 1511 1511 1510 1510 1510 1508 1508 1508 1508 1508 1508 1508 1509 1509 1510 1510 1511 1511 1511 1512 1512
1518 1518 1518 1517 1517 1516 1516 1515 1515 1515 1514 1514 1513 1512 1511 1510 1510 1509 1508 1508 1507 1507 1506 1506 1505 1505 1505 1505 1504 1505 1505 1505 1506 1506 1507 1507 1507 1508
1516 1515 1515 1515 1514 1514 1514 1513 1512 1512 1512 1511 1510 1510 1509 1508 1508 1507 1506 1505 1504 1504 1504 1503 1503 1502 1502 1501 1501 1501 1501 1501 1501 1502 1502 1502 1502 1503
1513 1513 1513 1512 1511 1510 1510 1509 1509 1509 1508 1508 1507 1507 1506 1505 1505 1504 1503 1502 1501 1502 1501 1500 1500 1500 1500 1499 1498 1497 1497 1497 1497 1497 1498 1498 1498 1498
1511 1510 1511 1510 1509 1508 1507 1506 1505 1505 1505 1504 1504 1503 1502 1502 1501 1501 1500 1499 1498 1498 1498 1497 1497 1497 1497 1496 1494 1494 1493 1493 1493 1493 1493 1493 1494 1494
1508 1508 1507 1506 1506 1505 1505 1504 1503 1502 1501 1501 1500 1499 1499 1498 1497 1497 1496 1495 1494 1495 1495 1494 1494 1493 1493 1492 1491 1490 1490 1490 1489 1489 1489 1489 1489 1489
1505 1505 1504 1503 1502 1502 1501 1500 1499 1499 1498 1497 1496 1495 1494 1494 1494 1494 1493 1493 1492 1492 1491 1491 1490 1490 1490 1489 1488 1487 1487 1486 1485 1485 1485 1485 1485 1485
1501 1501 1500 1500 1499 1499 1498 1497 1496 1496 1495 1494 1493 1492 1491 1490 1490 1490 1490 1489 1488 1488 1487 1487 1487 1487 1486 1486 1485 1484 1484 1483 1482 1481 1481 1481 1481 1480
1498 1498 1497 1496 1496 1495 1495 1494 1493 1492 1492 1491 1490 1489 1488 1487 1487 1486 1486 1486 1485 1485 1485 1484 1483 1483 1482 1482 1482 1482 1481 1480 1479 1478 1477 1477 1476 1476
1494 1494 1494 1493 1492 1492 1491 1490 1490 1489 1489 1488 1487 1486 1485 1485 1484 1483 1482 1482 1481 1481 1480 1480 1479 1479 1479 1479 1479 1478 1478 1477 1476 1475 1474 1473 1473 1472
1490 1489 1489 1489 1488 1488 1487 1487 1486 1486 1486 1485 1484 1483 1482 1481 1480 1479 1479 1478 1477 1477 1477 1476 1476 1476 1476 1475 1475 1474 1474 1474 1473 1472 1471 1470 1470 1469
1486 1485 1485 1485 1484 1484 1484 1483 1483 1483 1482 1481 1480 1479 1478 1477 1476 1476 1476 1475 1475 1474 1473 1473 1473 1473 1472 1472 1471 1471 1471 1470 1469 1468 1468 1467 1467 1466
1481 1481 1481 1481 1481 1481 1481 1481 1480 1479 1479 1478 1477 1475 1474 1474 1473 1473 1472 1472 1472 1471 1470 1470 1470 1469 1469 1469 1468 1468 1467 1467 1466 1465 1464 1464 1463 1463
1478 1478 1478 1478 1478 1477 1477 1476 1476 1476 1475 1474 1473 1472 1471 1470 1470 1469 1469 1468 1468 1468 1467 1467 1467 1466 1466 1465 1465 1464 1464 1463 1463 1462 1461 1461 1460 1460
1474 1474 1474 1474 1473 1473 1473 1472 1472 1471 1471 1470 1470 1469 1468 1467 1466 1466 1465 1465 1465 1465 1464 1464 1463 1463 1463 1462 1461 1461 1461 1460 1460 1459 1458 1458 1457 1456
1469 1470 1470 1469 1469 1469 1468 1468 1467 1467 1466 1466 1465 1465 1464 1463 1463 1462 1462 1461 1461 1461 1461 1461 1460 1460 1460 1460 1459 1458 1457 1457 1456 1456 1455 1455 1454 1454
1464 1465 1465 1465 1464 1464 1464 1463 1463 1462 1462 1461 1461 1460 1459 1459 1459 1458 1458 1457 1457 1457 1457 1457 1456 1456 1456 1457 1456 1455 1454 1453 1453 1453 1452 1452 1452 1451
1459 1459 1459 1459 1459 1459 1458 1458 1458 1457 1457 1456 1456 1456 1455 1455 1454 1454 1454 1454 1454 1453 1453 1453 1453 1453 1453 1453 1452 1451 1451 1451 1450 1449 1449 1449 1449 1449
1454 1454 1454 1454 1454 1453 1453 1453 1453 1453 1452 1452 1452 1451 1451 1451 1450 1450 1450 1450 1450 1450 1449 1449 1449 1449 1449 1449 1448 1448 1448 1448 1447 1447 1446 1446 1446 1446